KOREASAT 5 (MUGUNGWHA 5)

Last updated on Thu Jul 03 2025 00:02:44 GMT+0000 (Coordinated Universal Time)

1 29349U 06034A 25183.62497841 -.00000351 00000+0 00000+0 0 9998 2 29349 0.8798 88.1001 0001695 62.0078 108.8335 1.00270765 37818
UTC large
Height (km)
Speed (km/s)
/
Latitude / Longitude
Inclination (degrees)
Orbital Period (minutes)
Azimuth
Elevation
Range (km)
Doppler Factor

Next 0 passes for location: London (51.5072 / 0.1276)

Sorry there are no passes over London.